SCP
-0 -0 -0 -0 0 0 0 -0 -0 -0 0 0 0 0 0 0 -0 0 0 0 0 0 0 0 0 0 -0 -0 -0 -0 -0 -0 0 0 0 0 -0 -0 -0 -0 -0 -0 -0
-0 -0 -0 -0 -0 -0 -0 -0 -0 0 0 0 0 0 0 0 0 -0 -0 0 0 0 -0 -0 -0 -0 -0 -0 -0 -0 -0 -0 -0 0 0 -0 -0 -0 -0 -0 -0 -0 -0
-0 -0 -0 0 -0 -0 0 -0 0 0 0 -0 0 0 -0 0 0 0 0 0 0 0 0 0 0 0 0 0 0 0 -0 -0 -0 -0 0 0 0 0 0 0 -0 -0 -0
-0 -0 -0 -0 0 0 -0 -0 -0 -0 -0 -0 -0 0 0 0 0 0 0 0 0 0 0 0 0 0 0 0 0 0 0 0 0 -0 0 -0 -0 -0 0 -0 0 0 0
-0 -0 0 0 -0 -0 -0 -0 -0 -0 -0 -0 -0 0 0 0 0 0 0 0 0 0 0 0 0 0 0 0 0 0 0 -0 -0 -0 0 0 -0 0 0 0 0 0 0
0 -0 0 0 0 -0 -0 -0 -0 0 -0 0 0 0 0 0 0 0 0 0 0 0 0 0 0 0 0 0 0 0 0 -0 -0 0 0 -0 -0 -0 -0 0 0 0 0
-0 -0 -0 0 -0 0 -0 -0 0 0 0 0 0 0 0 0 0 0 0 0 0 0 0 0 0 0 0 0 0 0 0 0 0 0 0 0 0 0 0 0 0 0 -0
-0 -0 -0 -0 -0 -0 -0 0 0 0 0 0 0 0 0 0 0 0 0 0 0 0 0 0 0 0 0 0 0 0 0 0 0 0 0 0 0 -0 0 0 0 0 0
-0 -0 -0 -0 -0 -0 -0 0 0 0 0 0 0 0 0 0 0 0 0 0 0 0 0 0 0 0 0 0 0 0 0 0 0 -0 0 0 0 0 0 0 0 0 0
-0 -0 -0 -0 -0 -0 -0 0 0 0 0 -0 -0 -0 -0 -0 -0 -0 0 0 0 0 0 0 0 0 0 -0 0 -0 0 -0 0 -0 0 0 0 0 0 1 1 1 0
-0 -0 -0 -0 -0 0 -0 -0 -0 -0 -0 -0 -0 -0 -0 0 -0 -0 -0 0 0 0 0 0 0 -0 0 0 -0 0 0 0 -0 0 -0 0 0 0 1 1 1 1 0
-0 -0 -0 -0 -0 -0 -0 -0 -0 -0 -0 -0 -0 -0 -0 0 0 0 0 0 -0 -0 -0 0 0 0 0 0 0 0 0 0 0 0 0 0 1 1 1 1 1 1 0
-0 -0 -0 -0 0 0 -0 -0 -0 -0 -0 -0 -0 0 0 -0 0 0 0 0 0 0 1 0 0 0 0 0 -0 0 0 0 0 0 0 0 1 1 1 1 1 1 0
-0 -0 -0 -0 -0 0 0 -0 0 0 -0 -0 -0 -0 0 0 0 0 0 -0 -0 -0 -0 0 0 0 0 0 0 0 0 0 0 0 1 1 1 1 1 1 1 1 1
-0 -0 -0 -0 0 0 0 0 0 0 0 -0 -0 -0 -0 0 0 0 0 0 0 0 0 1 1 0 0 0 0 0 0 0 0 0 1 0 1 1 1 1 0 1 1
-0 -0 -0 -0 -0 0 0 0 0 0 -0 0 -0 -0 -0 0 -0 -0 0 -0 0 0 0 0 0 0 0 0 0 0 0 1 1 1 1 1 1 1 1 1 1 0 0
-0 -0 -0 -0 -0 -0 -0 -0 0 0 -0 0 0 -0 0 -0 -0 -0 -0 -0 0 0 0 0 0 0 -0 -0 0 0 0 0 0 1 1 1 1 1 1 1 1 1 0
-0 -0 -0 -0 -0 -0 0 0 0 -0 -0 -0 -0 0 0 0 0 0 -0 0 0 -0 0 0 0 0 -0 0 -0 -0 0 0 0 1 1 1 1 1 1 1 1 0 0
-0 -0 -0 -0 -0 -0 -0 -0 0 0 -0 -0 0 0 -0 0 0 0 -0 0 0 0 0 0 0 0 0 -0 -0 0 -0 0 1 1 1 1 1 1 1 1 0 0 0
-0 -0 -0 -0 -0 -0 -0 -0 -0 0 0 0 -0 0 -0 -0 0 0 0 0 0 0 0 0 0 0 0 0 -0 0 0 0 1 1 1 1 1 1 1 0 1 0 0
-0 -0 -0 -0 -0 -0 -0 -0 -0 -0 0 0 0 0 -0 -0 -0 -0 0 -0 0 0 0 0 0 1 1 0 0 -0 -0 0 0 1 1 1 1 1 2 2 1 0 0
-0 -0 -0 -0 -0 -0 -0 -0 -0 0 0 0 0 0 0 0 0 0 -0 0 -0 0 0 0 0 0 1 1 0 -0 -0 -0 0 0 1 1 1 1 1 1 0 0 0
-0 -0 -0 -0 -0 -0 0 -0 -0 -0 -1 -0 -0 0 0 0 0 -0 -0 0 -0 0 0 -0 0 1 1 0 0 0 -0 -0 -0 0 1 2 2 2 1 1 0 0 0
-0 -0 -0 -0 0 -0 -0 -0 0 0 0 0 0 0 0 -0 -0 0 0 0 0 0 0 0 0 0 0 0 1 1 1 1 0 0 1 2 2 2 1 1 0 0 0
-0 -0 -0 -0 0 0 0 -0 0 0 -0 -0 -0 0 0 0 -0 -0 0 1 1 0 0 0 -0 0 0 0 -0 -0 -1 0 0 0 0 0 1 2 1 0 0 0 0
0 -0 -0 -0 0 -0 -0 -0 0 -0 0 -0 -0 -0 0 0 -0 0 0 1 1 0 0 0 0 0 1 0 0 0 0 0 1 0 0 1 1 2 1 0 0 0 0
Wind_Speed_500mb
29 41 41 44 43 42 39 38 39 40 41 43 40 35 36 35 33 31 30 31 30 30 29 29 28 26 24 21 17 16 18 20 21 18 17 16 16 20 20 20 24 10 8
37 42 42 42 38 37 36 35 37 37 37 37 32 31 31 29 29 28 27 28 28 28 27 24 22 19 18 18 17 15 14 17 20 19 19 18 16 12 14 16 11 10 6
41 43 41 40 38 35 36 35 36 38 35 35 27 24 24 23 22 24 24 24 24 21 18 15 14 12 11 12 12 12 12 13 17 17 15 15 13 9 4 11 13 8 7
40 38 42 38 36 36 37 36 35 33 29 28 25 21 18 18 18 19 18 17 16 13 10 7 5 3 2 2 3 6 8 9 12 13 9 10 15 12 2 5 6 6 6
42 38 40 36 36 34 34 32 30 27 24 20 19 16 17 15 14 12 10 9 9 7 3 4 6 6 5 3 1 1 2 6 12 14 17 3 5 7 5 4 8 9 7
41 37 37 33 34 31 28 25 22 21 18 17 14 12 11 9 8 8 7 7 5 4 3 3 4 5 6 6 5 4 3 6 16 11 5 10 4 6 5 3 7 7 8
41 37 35 32 31 29 25 21 19 19 17 13 10 7 7 8 8 8 8 8 8 8 7 6 5 4 4 4 4 4 4 5 12 9 19 15 11 7 6 3 7 6 8
40 37 33 32 31 28 24 21 19 16 14 10 7 6 8 10 11 11 11 9 6 5 6 6 6 7 6 4 1 2 3 4 10 6 15 25 34 4 9 10 8 11 17
42 34 30 29 28 27 23 19 16 15 11 8 8 11 14 19 17 17 10 8 7 7 8 8 5 5 5 5 5 7 6 5 8 14 20 26 30 12 7 16 12 19 19
32 31 27 13 25 23 18 15 13 11 9 11 13 18 15 15 18 15 16 11 11 11 9 6 11 11 7 5 11 16 7 6 4 12 15 21 13 15 20 20 15 18 25
27 37 28 17 15 17 6 14 15 15 14 12 10 16 15 11 11 12 13 14 15 8 15 12 12 9 12 6 6 18 13 14 26 23 33 15 7 14 18 21 22 22 28
31 31 27 22 19 16 19 1 10 10 5 7 3 4 13 7 4 1 9 9 9 17 17 11 16 18 18 16 11 15 19 24 23 9 26 24 20 18 17 21 24 30 34
33 30 28 30 26 23 22 8 8 3 6 6 10 10 3 10 4 7 11 6 8 14 16 21 20 16 25 21 16 20 8 19 8 10 18 11 15 19 23 22 26 30 35
33 32 28 29 31 20 18 17 16 13 16 11 9 6 6 3 1 5 10 6 21 11 19 12 10 15 26 17 25 12 38 19 18 24 17 23 15 29 20 21 25 30 35
34 32 32 34 42 26 30 16 18 15 13 15 17 8 3 6 4 9 2 11 3 7 12 10 11 19 19 27 41 19 25 24 14 11 10 2 15 39 24 29 22 25 33
35 33 34 28 31 31 37 27 25 19 16 16 10 14 18 8 8 11 10 21 20 10 11 4 9 20 17 33 26 21 16 22 13 22 15 16 30 27 26 26 28 24 22
36 34 33 28 24 27 26 25 25 17 17 14 14 13 11 4 7 3 5 14 8 4 16 16 17 17 18 22 19 23 24 19 13 10 7 17 20 24 28 27 23 23 22
33 33 37 29 28 24 25 24 16 9 6 15 12 13 11 5 5 7 22 6 1 3 9 13 21 27 27 31 28 25 17 16 7 18 9 24 21 30 30 26 29 29 24
39 34 29 34 30 26 24 21 24 14 22 10 14 9 6 15 11 9 19 19 8 8 14 5 19 20 34 17 29 27 9 5 10 7 16 21 22 25 28 30 31 31 18
38 38 33 34 29 25 22 25 17 15 6 16 17 10 22 15 2 7 20 16 8 14 1 18 14 19 14 25 28 22 25 11 9 3 6 19 23 19 24 32 30 25 14
35 38 37 37 34 28 25 15 14 19 17 21 6 19 12 12 11 12 8 13 11 9 12 15 13 14 23 19 23 24 8 29 10 7 7 15 17 19 19 24 32 36 20
44 39 40 37 36 34 26 25 25 15 20 21 16 17 23 15 15 14 11 7 10 8 17 13 17 13 13 9 17 17 23 18 24 16 18 8 15 12 26 25 25 26 14
47 44 41 42 38 32 32 24 23 23 24 12 17 17 20 13 12 19 7 8 10 12 18 14 9 13 24 19 17 17 11 14 22 21 21 19 21 12 22 25 21 27 16
50 43 41 38 43 34 33 34 26 22 18 17 10 26 28 16 15 12 18 11 13 20 24 30 12 25 19 21 24 20 25 28 12 12 19 21 18 22 15 19 15 22 19
47 46 43 41 39 38 31 35 29 33 24 21 18 7 10 9 20 18 15 16 13 18 24 17 25 21 27 13 18 16 15 26 17 11 16 21 11 12 20 28 24 8 17
48 46 48 41 35 35 44 34 39 30 25 25 21 23 21 19 29 30 16 24 24 21 17 20 21 24 24 23 17 15 22 29 36 28 20 21 23 23 27 29 29 8 16
Wind_Direction_500mb
128 133 131 127 125 129 125 118 114 111 112 111 103 99 93 96 91 94 94 94 96 98 99 95 94 94 96 97 94 95 92 92 95 97 95 97 97 103 115 113 107 124 58
133 137 135 133 127 128 126 121 116 114 112 111 104 99 92 94 86 94 94 94 94 95 97 95 92 89 90 88 87 88 96 95 93 95 94 78 90 108 135 131 144 121 102
132 137 139 137 132 126 126 124 119 117 114 106 103 98 93 93 91 91 91 87 87 88 88 88 91 92 93 92 91 95 99 99 101 100 102 77 51 69 131 145 126 115 120
131 136 141 141 139 128 125 126 122 120 115 110 106 100 100 98 96 87 82 75 65 60 60 57 56 49 38 90 101 98 105 120 130 117 89 120 159 87 69 165 145 120 133
134 138 142 143 142 135 132 129 126 122 117 115 113 105 106 101 91 82 72 62 57 53 26 337 318 318 325 350 14 39 166 140 139 127 136 151 72 51 91 164 145 121 127
127 139 137 142 147 148 144 139 134 133 129 119 116 112 99 83 73 66 60 50 30 359 329 331 323 330 334 326 326 311 270 175 157 115 116 137 129 336 322 102 121 141 134
132 135 137 139 141 147 147 147 142 141 136 135 132 110 74 67 61 52 44 36 24 7 353 339 340 348 328 330 357 338 296 221 198 151 267 188 196 204 241 250 166 152 217
131 138 139 142 144 143 147 151 151 149 151 152 132 88 74 69 64 62 56 48 29 8 350 335 342 343 317 326 57 236 243 226 159 131 168 208 254 290 205 255 220 214 201
135 141 144 150 149 148 153 160 163 164 165 148 115 96 87 74 67 51 45 44 26 19 8 350 355 4 330 359 354 313 349 327 268 206 244 243 211 229 242 251 257 251 236
136 148 141 149 143 141 149 151 155 147 130 121 107 94 92 69 52 26 9 14 24 22 12 13 19 2 349 26 346 313 352 319 2 222 250 261 212 234 250 262 248 257 247
140 151 147 131 115 126 101 129 122 115 97 114 107 116 78 67 34 16 5 16 28 359 21 20 38 32 45 87 321 331 243 334 183 202 223 199 260 270 254 259 253 253 245
153 155 154 150 152 150 152 15 128 84 62 66 78 105 70 26 350 22 307 335 349 344 11 5 12 342 9 292 294 24 239 347 304 218 302 222 282 316 292 271 264 253 252
162 162 163 161 151 159 186 123 108 189 215 257 256 199 136 210 210 301 305 320 353 319 354 335 320 351 329 328 307 263 342 349 15 307 285 262 279 325 321 302 275 261 254
167 166 162 167 163 172 183 164 179 176 209 240 257 277 112 355 166 269 304 270 279 270 258 289 338 336 319 325 354 247 17 357 320 336 290 284 309 316 312 321 299 271 259
168 169 172 186 175 173 165 186 166 186 200 216 256 276 172 253 290 285 283 309 251 18 21 301 313 322 7 327 0 335 334 356 307 327 330 296 333 333 330 333 308 283 269
172 173 181 199 193 185 176 181 178 162 213 204 230 250 301 214 253 259 294 281 279 357 257 269 342 351 352 7 9 349 327 311 343 16 18 341 336 341 334 334 325 299 281
172 179 189 188 201 185 180 185 157 189 217 224 215 247 314 237 302 291 269 294 276 211 355 344 338 324 319 337 343 360 356 13 48 23 7 315 336 338 338 332 331 310 296
170 178 187 183 196 183 174 166 154 186 254 254 211 246 264 338 45 300 284 200 83 189 300 345 2 16 353 348 354 5 349 332 1 334 356 348 341 328 331 326 316 316 305
172 172 182 181 207 182 179 173 175 191 220 225 247 231 188 236 220 312 305 331 322 312 289 62 28 7 346 336 348 357 341 323 5 326 322 25 2 338 331 326 326 324 321
176 174 175 178 191 201 204 175 199 222 212 232 238 246 289 253 77 230 276 286 318 326 353 348 10 359 353 355 347 336 326 233 275 55 45 355 2 354 335 321 322 330 309
177 177 182 177 193 191 204 192 185 205 219 241 237 222 274 289 296 310 279 227 330 286 322 329 10 328 355 342 358 359 41 65 239 189 326 9 348 344 334 310 313 327 311
184 188 189 188 206 196 190 197 215 228 237 240 235 221 253 230 253 263 268 299 294 328 311 313 326 349 312 346 341 3 12 21 45 3 339 329 312 356 342 327 326 323 323
187 192 203 195 210 205 188 212 232 217 226 225 226 228 246 253 260 265 274 286 302 310 306 238 247 324 334 4 349 341 360 12 354 349 325 298 303 309 345 350 337 337 356
189 197 206 213 206 221 194 198 215 227 220 231 229 247 247 241 246 241 273 300 326 308 294 319 17 332 326 339 341 338 348 332 324 343 7 323 307 305 336 356 337 336 350
196 197 205 221 221 209 226 204 216 223 223 240 229 231 215 201 265 246 240 267 287 305 303 324 306 313 330 320 307 332 329 334 268 223 1 349 317 300 325 357 333 350 321
199 200 204 216 227 218 219 218 203 226 221 215 225 244 245 267 267 272 238 240 264 278 287 288 284 299 311 313 320 332 323 326 316 328 21 339 325 273 306 338 333 350 309
Wind_Speed_850mb
29 41 41 44 43 42 39 38 39 40 41 43 40 35 36 35 33 31 30 31 30 30 29 29 28 26 24 21 17 16 18 20 21 18 17 16 16 20 20 20 24 10 8
37 42 42 42 38 37 36 35 37 37 37 37 32 31 31 29 29 28 27 28 28 28 27 24 22 19 18 18 17 15 14 17 20 19 19 18 16 12 14 16 11 10 6
41 43 41 40 38 35 36 35 36 38 35 35 27 24 24 23 22 24 24 24 24 21 18 15 14 12 11 12 12 12 12 13 17 17 15 15 13 9 4 11 13 8 7
40 38 42 38 36 36 37 36 35 33 29 28 25 21 18 18 18 19 18 17 16 13 10 7 5 3 2 2 3 6 8 9 12 13 9 10 15 12 2 5 6 6 6
42 38 40 36 36 34 34 32 30 27 24 20 19 16 17 15 14 12 10 9 9 7 3 4 6 6 5 3 1 1 2 6 12 14 17 3 5 7 5 4 8 9 7
41 37 37 33 34 31 28 25 22 21 18 17 14 12 11 9 8 8 7 7 5 4 3 3 4 5 6 6 5 4 3 6 16 11 5 10 4 6 5 3 7 7 8
41 37 35 32 31 29 25 21 19 19 17 13 10 7 7 8 8 8 8 8 8 8 7 6 5 4 4 4 4 4 4 5 12 9 19 15 11 7 6 3 7 6 8
40 37 33 32 31 28 24 21 19 16 14 10 7 6 8 10 11 11 11 9 6 5 6 6 6 7 6 4 1 2 3 4 10 6 15 25 34 4 9 10 8 11 17
42 34 30 29 28 27 23 19 16 15 11 8 8 11 14 19 17 17 10 8 7 7 8 8 5 5 5 5 5 7 6 5 8 14 20 26 30 12 7 16 12 19 19
32 31 27 13 25 23 18 15 13 11 9 11 13 18 15 15 18 15 16 11 11 11 9 6 11 11 7 5 11 16 7 6 4 12 15 21 13 15 20 20 15 18 25
27 37 28 17 15 17 6 14 15 15 14 12 10 16 15 11 11 12 13 14 15 8 15 12 12 9 12 6 6 18 13 14 26 23 33 15 7 14 18 21 22 22 28
31 31 27 22 19 16 19 1 10 10 5 7 3 4 13 7 4 1 9 9 9 17 17 11 16 18 18 16 11 15 19 24 23 9 26 24 20 18 17 21 24 30 34
33 30 28 30 26 23 22 8 8 3 6 6 10 10 3 10 4 7 11 6 8 14 16 21 20 16 25 21 16 20 8 19 8 10 18 11 15 19 23 22 26 30 35
33 32 28 29 31 20 18 17 16 13 16 11 9 6 6 3 1 5 10 6 21 11 19 12 10 15 26 17 25 12 38 19 18 24 17 23 15 29 20 21 25 30 35
34 32 32 34 42 26 30 16 18 15 13 15 17 8 3 6 4 9 2 11 3 7 12 10 11 19 19 27 41 19 25 24 14 11 10 2 15 39 24 29 22 25 33
35 33 34 28 31 31 37 27 25 19 16 16 10 14 18 8 8 11 10 21 20 10 11 4 9 20 17 33 26 21 16 22 13 22 15 16 30 27 26 26 28 24 22
36 34 33 28 24 27 26 25 25 17 17 14 14 13 11 4 7 3 5 14 8 4 16 16 17 17 18 22 19 23 24 19 13 10 7 17 20 24 28 27 23 23 22
33 33 37 29 28 24 25 24 16 9 6 15 12 13 11 5 5 7 22 6 1 3 9 13 21 27 27 31 28 25 17 16 7 18 9 24 21 30 30 26 29 29 24
39 34 29 34 30 26 24 21 24 14 22 10 14 9 6 15 11 9 19 19 8 8 14 5 19 20 34 17 29 27 9 5 10 7 16 21 22 25 28 30 31 31 18
38 38 33 34 29 25 22 25 17 15 6 16 17 10 22 15 2 7 20 16 8 14 1 18 14 19 14 25 28 22 25 11 9 3 6 19 23 19 24 32 30 25 14
35 38 37 37 34 28 25 15 14 19 17 21 6 19 12 12 11 12 8 13 11 9 12 15 13 14 23 19 23 24 8 29 10 7 7 15 17 19 19 24 32 36 20
44 39 40 37 36 34 26 25 25 15 20 21 16 17 23 15 15 14 11 7 10 8 17 13 17 13 13 9 17 17 23 18 24 16 18 8 15 12 26 25 25 26 14
47 44 41 42 38 32 32 24 23 23 24 12 17 17 20 13 12 19 7 8 10 12 18 14 9 13 24 19 17 17 11 14 22 21 21 19 21 12 22 25 21 27 16
50 43 41 38 43 34 33 34 26 22 18 17 10 26 28 16 15 12 18 11 13 20 24 30 12 25 19 21 24 20 25 28 12 12 19 21 18 22 15 19 15 22 19
47 46 43 41 39 38 31 35 29 33 24 21 18 7 10 9 20 18 15 16 13 18 24 17 25 21 27 13 18 16 15 26 17 11 16 21 11 12 20 28 24 8 17
48 46 48 41 35 35 44 34 39 30 25 25 21 23 21 19 29 30 16 24 24 21 17 20 21 24 24 23 17 15 22 29 36 28 20 21 23 23 27 29 29 8 16
Wind_Direction_850mb
128 133 131 127 125 129 125 118 114 111 112 111 103 99 93 96 91 94 94 94 96 98 99 95 94 94 96 97 94 95 92 92 95 97 95 97 97 103 115 113 107 124 58
133 137 135 133 127 128 126 121 116 114 112 111 104 99 92 94 86 94 94 94 94 95 97 95 92 89 90 88 87 88 96 95 93 95 94 78 90 108 135 131 144 121 102
132 137 139 137 132 126 126 124 119 117 114 106 103 98 93 93 91 91 91 87 87 88 88 88 91 92 93 92 91 95 99 99 101 100 102 77 51 69 131 145 126 115 120
131 136 141 141 139 128 125 126 122 120 115 110 106 100 100 98 96 87 82 75 65 60 60 57 56 49 38 90 101 98 105 120 130 117 89 120 159 87 69 165 145 120 133
134 138 142 143 142 135 132 129 126 122 117 115 113 105 106 101 91 82 72 62 57 53 26 337 318 318 325 350 14 39 166 140 139 127 136 151 72 51 91 164 145 121 127
127 139 137 142 147 148 144 139 134 133 129 119 116 112 99 83 73 66 60 50 30 359 329 331 323 330 334 326 326 311 270 175 157 115 116 137 129 336 322 102 121 141 134
132 135 137 139 141 147 147 147 142 141 136 135 132 110 74 67 61 52 44 36 24 7 353 339 340 348 328 330 357 338 296 221 198 151 267 188 196 204 241 250 166 152 217
131 138 139 142 144 143 147 151 151 149 151 152 132 88 74 69 64 62 56 48 29 8 350 335 342 343 317 326 57 236 243 226 159 131 168 208 254 290 205 255 220 214 201
135 141 144 150 149 148 153 160 163 164 165 148 115 96 87 74 67 51 45 44 26 19 8 350 355 4 330 359 354 313 349 327 268 206 244 243 211 229 242 251 257 251 236
136 148 141 149 143 141 149 151 155 147 130 121 107 94 92 69 52 26 9 14 24 22 12 13 19 2 349 26 346 313 352 319 2 222 250 261 212 234 250 262 248 257 247
140 151 147 131 115 126 101 129 122 115 97 114 107 116 78 67 34 16 5 16 28 359 21 20 38 32 45 87 321 331 243 334 183 202 223 199 260 270 254 259 253 253 245
153 155 154 150 152 150 152 15 128 84 62 66 78 105 70 26 350 22 307 335 349 344 11 5 12 342 9 292 294 24 239 347 304 218 302 222 282 316 292 271 264 253 252
162 162 163 161 151 159 186 123 108 189 215 257 256 199 136 210 210 301 305 320 353 319 354 335 320 351 329 328 307 263 342 349 15 307 285 262 279 325 321 302 275 261 254
167 166 162 167 163 172 183 164 179 176 209 240 257 277 112 355 166 269 304 270 279 270 258 289 338 336 319 325 354 247 17 357 320 336 290 284 309 316 312 321 299 271 259
168 169 172 186 175 173 165 186 166 186 200 216 256 276 172 253 290 285 283 309 251 18 21 301 313 322 7 327 0 335 334 356 307 327 330 296 333 333 330 333 308 283 269
172 173 181 199 193 185 176 181 178 162 213 204 230 250 301 214 253 259 294 281 279 357 257 269 342 351 352 7 9 349 327 311 343 16 18 341 336 341 334 334 325 299 281
172 179 189 188 201 185 180 185 157 189 217 224 215 247 314 237 302 291 269 294 276 211 355 344 338 324 319 337 343 360 356 13 48 23 7 315 336 338 338 332 331 310 296
170 178 187 183 196 183 174 166 154 186 254 254 211 246 264 338 45 300 284 200 83 189 300 345 2 16 353 348 354 5 349 332 1 334 356 348 341 328 331 326 316 316 305
172 172 182 181 207 182 179 173 175 191 220 225 247 231 188 236 220 312 305 331 322 312 289 62 28 7 346 336 348 357 341 323 5 326 322 25 2 338 331 326 326 324 321
176 174 175 178 191 201 204 175 199 222 212 232 238 246 289 253 77 230 276 286 318 326 353 348 10 359 353 355 347 336 326 233 275 55 45 355 2 354 335 321 322 330 309
177 177 182 177 193 191 204 192 185 205 219 241 237 222 274 289 296 310 279 227 330 286 322 329 10 328 355 342 358 359 41 65 239 189 326 9 348 344 334 310 313 327 311
184 188 189 188 206 196 190 197 215 228 237 240 235 221 253 230 253 263 268 299 294 328 311 313 326 349 312 346 341 3 12 21 45 3 339 329 312 356 342 327 326 323 323
187 192 203 195 210 205 188 212 232 217 226 225 226 228 246 253 260 265 274 286 302 310 306 238 247 324 334 4 349 341 360 12 354 349 325 298 303 309 345 350 337 337 356
189 197 206 213 206 221 194 198 215 227 220 231 229 247 247 241 246 241 273 300 326 308 294 319 17 332 326 339 341 338 348 332 324 343 7 323 307 305 336 356 337 336 350
196 197 205 221 221 209 226 204 216 223 223 240 229 231 215 201 265 246 240 267 287 305 303 324 306 313 330 320 307 332 329 334 268 223 1 349 317 300 325 357 333 350 321
199 200 204 216 227 218 219 218 203 226 221 215 225 244 245 267 267 272 238 240 264 278 287 288 284 299 311 313 320 332 323 326 316 328 21 339 325 273 306 338 333 350 309